Bedminster, NJ

8:34 PM EST on February 25, 2017 (GMT -0500)
Somerset

Weather History for KSMQ - March, 2013

Change the Weather History Date:

Tuesday, March 5, 2013

  Actual Average Record
Temperature  
Mean Temperature 40 °F -  
Max Temperature 51 °F 44 °F 75 °F (1964)
Min Temperature 30 °F 27 °F 5 °F (1978)
Degree Days  
Heating Degree Days 24    
Moisture  
Dew Point 23 °F    
Average Humidity 53    
Maximum Humidity 70    
Minimum Humidity 35    
Precipitation  
Precipitation 0.00 in - - ()
Sea Level Pressure  
Sea Level Pressure 29.98 in    
Wind  
Wind Speed 6 mph (North)    
Max Wind Speed 14 mph    
Max Gust Speed 20 mph    
Visibility 10 miles    
Events      
Averages and records for this station are not official NWS values.
T = Trace of Precipitation, MM = Missing Value Source: NWS Daily Summary

Daily Weather History Graph

Daily Weather History Graph

Search for Another Location

Airport or City:

Trip Planner

Search our weather history database for the weather conditions in past years. The results will help you decide how hot, cold, wet, or windy it might be!

Date:

Astronomy

Mar. 05, 2013 Rise Set
Actual Time 6:26 AM EST 5:54 PM EST
Civil Twilight 5:58 AM EST 6:22 PM EST
Nautical Twilight 5:27 AM EST 6:53 PM EST
Astronomical Twilight 4:55 AM EST 7:25 PM EST
Moon 1:36 AM EST (3/5) 11:30 AM EST (3/5)
Length of Visible Light 12h 23m
Length of Day
11h 28m
Last Quarter, 41% of the Moon is Illuminated
Mar 5
Last Quarter
Mar 11
New
Mar 19
First Quarter
Mar 27
Full
Apr 3
Last Quarter

Hourly Weather History & Observations

Time (EST) Temp. Windchill Dew Point Humidity Pressure Visibility Wind Dir Wind Speed Gust Speed Precip Events Conditions
12:53 AM 34.0 °F 26.0 °F 19.9 °F 56% 29.95 in 10.0 mi NW 10.4 mph 18.4 mph N/A   Overcast
2:53 AM 33.1 °F 24.9 °F 19.9 °F 59% 29.94 in 10.0 mi NNW 10.4 mph - N/A   Partly Cloudy
3:53 AM 32.0 °F 24.2 °F 19.9 °F 61% 29.95 in 10.0 mi NW 9.2 mph - N/A   Mostly Cloudy
4:53 AM 32.0 °F 25.6 °F 19.9 °F 61% 29.97 in 10.0 mi NW 6.9 mph - N/A   Partly Cloudy
5:53 AM 30.0 °F - 19.9 °F 66% 29.99 in 10.0 mi Calm Calm - N/A   Clear
6:53 AM 30.0 °F 26.5 °F 21.0 °F 69% 30.00 in 10.0 mi NW 3.5 mph - N/A   Clear
7:53 AM 33.8 °F 24.3 °F 19.4 °F 56% 30.01 in 10.0 mi NNW 13.8 mph 19.6 mph N/A   Clear
8:53 AM 36.0 °F 30.3 °F 21.0 °F 55% 30.03 in 10.0 mi North 6.9 mph - N/A   Clear
9:53 AM 37.9 °F 33.5 °F 21.0 °F 51% 30.02 in 10.0 mi NNW 5.8 mph - N/A   Clear
10:53 AM 41.0 °F 35.2 °F 21.9 °F 47% 30.01 in 10.0 mi North 9.2 mph - N/A   Clear
11:53 AM 43.0 °F - 23.0 °F 45% 29.99 in 10.0 mi Calm Calm - N/A   Clear
12:53 PM 46.0 °F - 23.0 °F 40% 29.98 in 10.0 mi Calm Calm - N/A   Clear
1:53 PM 48.0 °F - 24.1 °F 39% 29.97 in 10.0 mi Variable 4.6 mph - N/A   Mostly Cloudy
2:53 PM 48.9 °F - 24.1 °F 38% 29.96 in 10.0 mi Variable 3.5 mph - N/A   Clear
3:53 PM 51.1 °F - 24.1 °F 35% 29.95 in 10.0 mi Calm Calm - N/A   Mostly Cloudy
4:53 PM 48.0 °F - 23.0 °F 37% 29.94 in 10.0 mi East 4.6 mph - N/A   Clear
5:53 PM 46.0 °F 44.8 °F 23.0 °F 40% 29.96 in 10.0 mi ENE 3.5 mph - N/A   Clear
6:53 PM 42.1 °F 40.2 °F 24.1 °F 49% 29.98 in 10.0 mi East 3.5 mph - N/A   Clear
7:53 PM 35.1 °F 32.2 °F 25.0 °F 67% 29.99 in 10.0 mi SE 3.5 mph - N/A   Mostly Cloudy
8:53 PM 41.0 °F 38.0 °F 26.1 °F 55% 29.98 in 10.0 mi SSE 4.6 mph - N/A   Overcast
9:53 PM 37.0 °F - 26.1 °F 65% 29.98 in 10.0 mi Calm Calm - N/A   Scattered Clouds
10:53 PM 37.0 °F - 26.1 °F 65% 29.97 in 10.0 mi Calm Calm - N/A   Overcast
11:53 PM 36.0 °F - 27.0 °F 70% 29.96 in 10.0 mi Calm Calm - N/A   Overcast